Date String (YYYY-MM-DD hh:mm:ss) UTC,Instrument flags,Ambient pressure (hPa),Sample flow (lpm),Bypass flow (lpm),Sample temperature (°C),Ambient temperature (°C),ASC tube jacket temperature (°C),LED temperature (°C),Box temperature (°C),Sample RH (%),Span deviation,Mass concentration (μg/m³),Mass concentration (μg/m³),Mass concentration (μg/m³)
DateTimeUTC,F1_M11,P_M11,Q1_M11,Q2_M11,T1_M11,T2_M11,T3_M11,T4_M11,T5_M11,U1_M11,ZSPAN_M11,X0_M11,X2_M11,X1_M11
2022-03-17 14:00:00,,0827.1,4.99,0.00,22.4,21.7,00.0,31.5,24.2,18.4,0000.0,0003.27,0001.31,0001.05
2022-03-17 14:01:00,,0827.3,5.00,0.00,22.4,21.7,00.0,31.5,24.2,18.4,0000.0,0003.43,0001.37,0001.09
2022-03-17 14:02:00,,0827.3,5.01,0.00,22.4,21.6,00.0,31.5,24.1,18.4,0000.0,0003.53,0001.42,0001.13
2022-03-17 14:03:00,,0827.5,4.99,0.00,22.4,21.6,00.0,31.5,24.1,18.4,0000.0,0003.61,0001.48,0001.16
2022-03-17 14:04:00,,0827.3,5.01,0.00,22.4,21.6,00.0,31.5,24.1,18.5,0000.0,0003.66,0001.52,0001.20
2022-03-17 14:05:00,,0827.6,4.99,0.00,22.4,21.6,00.0,31.4,24.1,18.4,0000.0,0003.45,0001.52,0001.23
2022-03-17 14:06:00,,0827.3,4.99,0.00,22.3,21.5,00.0,31.4,24.1,18.4,0000.0,0003.20,0001.50,0001.24
2022-03-17 14:07:00,,0827.3,5.01,0.00,22.3,21.5,00.0,31.4,24.0,18.4,0000.0,0002.63,0001.48,0001.24
2022-03-17 14:08:00,,0827.3,5.00,0.00,22.3,21.5,00.0,31.4,24.0,18.5,0000.0,0002.41,0001.46,0001.25
2022-03-17 14:09:00,,0827.3,4.99,0.00,22.3,21.4,00.0,31.4,24.0,18.5,0000.0,0002.17,0001.42,0001.24
2022-03-17 14:10:00,,0827.4,4.99,0.00,22.2,21.4,00.0,31.3,24.0,18.5,0000.0,0001.71,0001.37,0001.22
2022-03-17 14:11:00,,0827.4,5.00,0.00,22.2,21.5,00.0,31.3,24.0,18.5,0000.0,0001.66,0001.34,0001.19
2022-03-17 14:12:00,,0827.4,5.00,0.00,22.3,22.1,00.0,31.4,24.1,18.4,0000.0,0001.52,0001.29,0001.16
2022-03-17 14:13:00,,0827.4,5.00,0.00,22.5,22.9,00.0,31.4,24.4,18.3,0000.0,0001.38,0001.23,0001.12
2022-03-17 14:14:00,,0827.4,5.00,0.00,22.6,23.2,00.0,31.4,24.6,18.2,0000.0,0001.25,0001.15,0001.07
2022-03-17 14:15:00,,0827.4,4.99,0.00,22.6,22.9,00.0,31.5,24.6,18.1,0000.0,0001.12,0001.07,0001.02
2022-03-17 14:16:00,,0827.5,5.01,0.00,22.6,22.7,00.0,31.5,24.5,18.1,0000.0,0001.13,0001.04,0000.97
2022-03-17 14:17:00,,0827.5,5.00,0.00,22.6,22.5,00.0,31.5,24.5,18.1,0000.0,0001.15,0001.02,0000.92
2022-03-17 14:18:00,,0827.5,5.00,0.00,22.6,22.4,00.0,31.5,24.4,18.1,0000.0,0001.28,0001.01,0000.87
2022-03-17 14:19:00,,0827.6,5.00,0.00,22.6,22.2,00.0,31.5,24.4,18.1,0000.0,0002.11,0001.00,0000.81
2022-03-17 14:20:00,,0827.5,5.00,0.00,22.6,22.1,00.0,31.5,24.3,18.1,0000.0,0003.57,0000.99,0000.76
2022-03-17 14:21:00,,0827.5,4.99,0.00,22.6,22.0,00.0,31.5,24.3,18.2,0000.0,0004.00,0001.02,0000.73
2022-03-17 14:22:00,,0827.5,4.99,0.00,22.5,21.9,00.0,31.5,24.3,18.2,0000.0,0004.06,0001.02,0000.69
2022-03-17 14:23:00,,0827.5,5.00,0.00,22.5,21.9,00.0,31.5,24.2,18.2,0000.0,0005.87,0001.04,0000.65
2022-03-17 14:24:00,,0827.6,5.00,0.00,22.5,21.8,00.0,31.5,24.2,18.2,0000.0,0006.03,0001.03,0000.61
2022-03-17 14:25:00,,0827.6,4.99,0.00,22.4,21.8,00.0,31.5,24.2,18.2,0000.0,0006.06,0001.02,0000.58
2022-03-17 14:26:00,,0827.6,4.99,0.00,22.4,21.7,00.0,31.5,24.1,18.2,0000.0,0006.28,0001.08,0000.55
2022-03-17 14:27:00,,0827.6,5.00,0.00,22.4,21.7,00.0,31.5,24.0,18.2,0000.0,0006.56,0001.12,0000.50
2022-03-17 14:28:00,,0827.7,5.01,0.00,22.3,21.6,00.0,31.4,24.0,18.2,0000.0,0007.23,0001.14,0000.47
2022-03-17 14:29:00,,0827.6,5.01,0.00,22.3,21.6,00.0,31.4,23.9,18.3,0000.0,0007.59,0001.12,0000.44
2022-03-17 14:30:00,,0827.7,4.99,0.00,22.3,21.5,00.0,31.4,23.9,18.3,0000.0,0007.32,0001.12,0000.42
2022-03-17 14:31:00,,0827.7,5.00,0.00,22.2,21.5,00.0,31.4,23.8,18.2,0000.0,0006.55,0001.09,0000.38
2022-03-17 14:32:00,,0827.7,5.00,0.00,22.2,21.4,00.0,31.4,23.8,18.3,0000.0,0005.74,0001.03,0000.34
2022-03-17 14:33:00,,0827.7,5.01,0.00,22.1,21.4,00.0,31.3,23.8,18.3,0000.0,0005.74,0000.97,0000.31
2022-03-17 14:34:00,,0827.7,5.00,0.00,22.1,21.4,00.0,31.3,23.7,18.3,0000.0,0004.29,0000.92,0000.30
2022-03-17 14:35:00,,0827.7,5.01,0.00,22.1,21.3,00.0,31.3,23.6,18.3,0000.0,0003.91,0000.89,0000.27
2022-03-17 14:36:00,,0827.7,5.00,0.00,22.0,21.2,00.0,31.3,23.6,18.3,0000.0,0003.92,0000.87,0000.26
2022-03-17 14:37:00,,0827.7,4.99,0.00,22.0,21.2,00.0,31.2,23.5,18.3,0000.0,0004.96,0000.80,0000.25
2022-03-17 14:38:00,,0827.9,4.99,0.00,22.0,21.4,00.0,31.2,23.7,18.4,0000.0,0007.05,0000.76,0000.25
2022-03-17 14:39:00,,0827.8,5.01,0.00,22.1,22.2,00.0,31.3,24.0,18.3,0000.0,0006.64,0000.68,0000.24
2022-03-17 14:40:00,,0827.8,5.00,0.00,22.3,22.9,00.0,31.3,24.2,18.1,0000.0,0005.83,0000.67,0000.23
2022-03-17 14:41:00,,0827.8,5.00,0.00,22.4,22.8,00.0,31.3,24.3,18.0,0000.0,0005.66,0000.60,0000.23
2022-03-17 14:42:00,,0827.8,5.01,0.00,22.4,22.6,00.0,31.3,24.2,18.0,0000.0,0005.53,0000.58,0000.23
2022-03-17 14:43:00,,0827.9,4.99,0.00,22.3,22.4,00.0,31.3,24.2,18.0,0000.0,0006.09,0000.59,0000.23
2022-03-17 14:44:00,,0827.8,5.00,0.00,22.3,22.2,00.0,31.3,24.1,18.0,0000.0,0006.09,0000.59,0000.24
2022-03-17 14:45:00,,0827.8,5.00,0.00,22.3,22.0,00.0,31.3,24.0,18.0,0000.0,0006.31,0000.61,0000.25
2022-03-17 14:46:00,,0827.9,5.00,0.00,22.2,21.9,00.0,31.3,23.9,18.0,0000.0,0006.98,0000.62,0000.26
2022-03-17 14:47:00,,0827.9,5.00,0.00,22.2,21.7,00.0,31.3,23.9,18.0,0000.0,0006.94,0000.62,0000.27
2022-03-17 14:48:00,,0827.9,5.00,0.00,22.2,21.6,00.0,31.3,23.8,18.1,0000.0,0005.90,0000.60,0000.28
2022-03-17 14:49:00,,0827.9,5.00,0.00,22.1,21.5,00.0,31.3,23.7,18.1,0000.0,0003.53,0000.57,0000.28
2022-03-17 14:50:00,,0827.9,5.01,0.00,22.1,21.4,00.0,31.3,23.7,18.1,0000.0,0003.23,0000.58,0000.29
2022-03-17 14:51:00,,0827.9,5.00,0.00,22.0,21.4,00.0,31.2,23.7,18.2,0000.0,0003.20,0000.57,0000.29
2022-03-17 14:52:00,,0828.0,5.00,0.00,22.0,21.3,00.0,31.2,23.7,18.2,0000.0,0003.04,0000.55,0000.30
2022-03-17 14:53:00,,0828.0,4.99,0.00,22.0,21.3,00.0,31.2,23.6,18.3,0000.0,0003.02,0000.57,0000.31
2022-03-17 14:54:00,,0828.0,5.01,0.00,22.0,21.2,00.0,31.2,23.6,18.3,0000.0,0002.13,0000.55,0000.32
2022-03-17 14:55:00,,0828.0,5.00,0.00,22.0,21.2,00.0,31.1,23.6,18.3,0000.0,0002.01,0000.55,0000.33
2022-03-17 14:56:00,,0827.9,5.00,0.00,21.9,21.2,00.0,31.1,23.6,18.3,0000.0,0002.06,0000.57,0000.34
2022-03-17 14:57:00,,0828.0,4.99,0.00,21.9,21.1,00.0,31.1,23.5,18.3,0000.0,0001.11,0000.55,0000.35
2022-03-17 14:58:00,,0828.0,5.00,0.00,21.8,21.0,00.0,31.1,23.4,18.4,0000.0,0001.14,0000.58,0000.37
2022-03-17 14:59:00,,0828.1,5.01,0.00,21.8,21.0,00.0,31.0,23.4,18.5,0000.0,0001.17,0000.61,0000.38
